sat.trackr.live / text

‹ back to catalog

STARLINK-36182

NORAD 67192 · 2025-304A

PAYLOAD ACTIVE UNKNOWN

§ Identity

Operator
Country
US
Launch date
2025-12-17
Launch site
AFWTR
Launch vehicle
Mass (kg)
RCS (m²)

Purposes: comms

External: N2YO · Heavens-Above · Gunter

§ Orbital elements

Epoch: 2026-05-24T22:09:42.875424Z

Period
96.11 min
Inclination
70.0015°
Eccentricity
0.0002352
Mean motion
14.98337008 rev/d
Perigee alt
570.4 km
Apogee alt
573.7 km
Semi-major
6,950.2 km
B*
1.8291e-4
RAAN
342.2561°
Arg perigee
264.1948°
Mean anomaly
95.8942°
Rev number
2,527

§ Raw data

STARLINK-361821 67192U 25304A   26144.92341291  .00002090  00000+0  18291-3 0  99912 67192  70.0015 342.2561 0002352 264.1948  95.8942 14.98337008 25275

JSON: /api/v1/satellites/67192 · /tle

For live sub-satellite position, see the globe view (requires WebGL).

§ Visibility from observer

Set your observer location to see the next 7 days of passes ≥ 10°. The values pass through the URL so the page stays shareable.

No JS? Fill the form by hand. The geolocation button needs JavaScript.